Miscellaneous Local Product
Issued by NWS North Platte, NE

Home | Current Version | Previous Version | Text Only | Print | Product List | Glossary On
Versions: 1 2 3 4 5 6 7 8 9 10 11 12 13 14 15 16 17 18 19 20 21 22 23 24 25 26 27 28 29 30 31 32 33 34 35 36 37 38 39 40 41 42 43 44 45 46 47 48 49 50
000
AXUS43 KLBF 190710
MISLBF


WESTERN AND NORTH CENTRAL NEBRASKA HOURLY WEATHER ROUNDUP
NATIONAL WEATHER SERVICE NORTH PLATTE NE
200 AM CDT SAT APR 19 2014

***STATIONS NOT REPORTING VARIABLES SUCH AS SKY/WEATHER OR
PRESSURE ARE PROVIDED BY THE NEBRASKA DEPARTMENT OF
ROADS...RAWS...AND APRS NETWORKS...AND ARE NOT UNDER
NATIONAL WEATHER SERVICE QUALITY CONTROL***

...OBSERVATIONS IN AND NEAR THE EASTERN PANHANDLE OF NEBRASKA...

CITY           SKY/WX    TMP DP  RH WIND       PRES   REMARKS
PINE RIDGE     CLOUDY    58  39  49 N3        29.82R
CHADRON        CLOUDY    59  41  51 NW8       29.82R
ALLIANCE       CLOUDY    53  36  52 CALM      29.84R
SIDNEY         CLOUDY    57  41  55 S16       29.85S
WHITECLAY        N/A     62  37  38 W5          N/A
CRESCENT LAKE    N/A     56  38  52 S3G15       N/A
LISCO            N/A     67  35  31 S8          N/A
BIG SPRINGS      N/A     58  45  62 S22         N/A
LEWELLEN         N/A     62  41  46 S18         N/A
$$

...OBSERVATIONS IN SOUTHWEST NEBRASKA AND FAR NORTHEAST COLORADO...

CITY           SKY/WX    TMP DP  RH WIND       PRES   REMARKS
WRAY           CLOUDY    57  43  60 SE3       29.87R
HOLYOKE        FAIR      54  43  66 SE8       29.86F
IMPERIAL       MOCLDY    56  42  59 S20G26    29.86F
OGALLALA       MOCLDY    57  42  56 SW8       29.86R
NORTH PLATTE   MOCLDY    56  41  57 SE7       29.90R
MCCOOK         CLOUDY    56  43  61 S16G28    29.90F
LEXINGTON      MOCLDY    55  44  67 S20       29.92F
PAXTON           N/A     57  44  63 S22         N/A
SUTHERLAND       N/A     52  41  66 S15         N/A
MEDICINE CREEK   N/A     55  45  68 CALM        N/A
GOTHENBURG       N/A     56  44  64 SE8G15      N/A
CALLAWAY         N/A     54  44  70 S25         N/A
$$

...OBSERVATIONS IN NORTH CENTRAL NEBRASKA...

CITY           SKY/WX    TMP DP  RH WIND       PRES   REMARKS
VALENTINE      CLOUDY    61  42  49 W18G36    29.84R
THEDFORD       MOCLDY    61  41  47 S29G37    29.84F
AINSWORTH      CLOUDY    60  43  53 S24G36    29.81S
O`NEILL        PTCLDY    60  40  48 S22G32    29.86F
ORD            PTCLDY    57  41  55 S22G37    29.90S
BROKEN BOW     MOCLDY    55  43  63 S23       29.90S
BROWNLEE         N/A     62  40  43 S21         N/A
SPRINGVIEW       N/A     60  44  55 SW13G25     N/A
DUNNING          N/A     58  42  56 SW16        N/A
BREWSTER         N/A     59  44  56 S25         N/A
ROSE             N/A     59  47  62 SE20        N/A
NEWPORT          N/A     59  45  58 S22         N/A
COMSTOCK         N/A     60  44  54 S21         N/A
CHAMBERS         N/A     57  40  53 S26         N/A
EWING            N/A     58  42  55 S18G26      N/A
$$

...SOME WEATHER OBSERVATIONS FROM AROUND THE REGION...

CITY           SKY/WX    TMP DP  RH WIND       PRES   REMARKS
DENVER         PTCLDY    54  31  41 SW9       29.91R
LARAMIE        MOCLDY    41  30  65 NE6       30.02R
CHEYENNE       CLOUDY    50  33  52 W6        29.96R
SCOTTSBLUFF    CLOUDY    54  35  48 NW6       29.86R
RAPID CITY     CLOUDY    49  40  71 N38G49    29.86R
PIERRE         CLOUDY    62  41  46 NW22G33   29.69R
WINNER         FAIR      66  43  43 SW18G35   29.77R
SIOUX FALLS    CLOUDY    55  39  54 S16G26    29.91F
OMAHA          PTCLDY    54  39  57 S15       30.06F
GRAND ISLAND   CLEAR     56  41  57 S20G26    29.98F
KANSAS CITY    PTCLDY    54  41  61 SE12      30.16F
WICHITA        PTCLDY    54  40  59 S12       30.11F
HAYS           CLEAR     55  45  67 S14G21    30.02F
LIBERAL        MOCLDY    54  43  66 SE18      30.04S
GOODLAND       MOCLDY    53  44  71 S23       29.90F
$$



USA.gov is the U.S. government's official web portal to all federal, state and local government web resources and services.